,,PressureMeas_1m,,PRMeasQMR101_1,,RHStat155_1m_1,,SRMeasQMS101R_1m,,TAStat155_1m_1,,GenWind_1,,GenWind_1,
2017-04-01, 07:00:06,VALID,918.581,VALID,0.0,VALID,95.128,VALID,129.762,VALID,19.258,VALID,116.0,VALID,0.857,
2017-04-01, 07:01:06,VALID,918.59,VALID,0.0,VALID,94.721,VALID,169.023,VALID,19.33,VALID,130.0,VALID,1.123,
2017-04-01, 07:02:06,VALID,918.594,VALID,0.0,VALID,94.408,VALID,179.46,VALID,19.395,VALID,128.0,VALID,1.385,
2017-04-01, 07:03:06,VALID,918.606,VALID,0.0,VALID,94.099,VALID,184.742,VALID,19.458,VALID,134.0,VALID,1.639,
2017-04-01, 07:04:06,VALID,918.604,VALID,0.0,VALID,93.595,VALID,189.113,VALID,19.488,VALID,147.0,VALID,1.57,
2017-04-01, 07:05:06,VALID,918.617,VALID,0.0,VALID,93.869,VALID,193.017,VALID,19.521,VALID,142.0,VALID,1.652,
2017-04-01, 07:06:06,VALID,918.615,VALID,0.0,VALID,93.197,VALID,195.935,VALID,19.511,VALID,144.0,VALID,1.915,
2017-04-01, 07:07:06,VALID,918.612,VALID,0.0,VALID,92.948,VALID,188.43,VALID,19.491,VALID,137.0,VALID,1.668,
2017-04-01, 07:08:06,VALID,918.611,VALID,0.0,VALID,93.122,VALID,203.151,VALID,19.484,VALID,139.0,VALID,1.616,
2017-04-01, 07:09:06,VALID,918.606,VALID,0.0,VALID,93.229,VALID,206.316,VALID,19.493,VALID,130.0,VALID,1.298,
2017-04-01, 07:10:06,VALID,918.61,VALID,0.0,VALID,93.097,VALID,208.612,VALID,19.561,VALID,124.0,VALID,1.246,
2017-04-01, 07:11:06,VALID,918.627,VALID,0.0,VALID,92.669,VALID,211.459,VALID,19.617,VALID,121.0,VALID,1.181,
2017-04-01, 07:12:06,VALID,918.644,VALID,0.0,VALID,92.55,VALID,214.682,VALID,19.666,VALID,121.0,VALID,1.04,
2017-04-01, 07:13:06,VALID,918.654,VALID,0.0,VALID,93.187,VALID,218.035,VALID,19.775,VALID,132.0,VALID,0.809,
2017-04-01, 07:14:06,VALID,918.67,VALID,0.0,VALID,92.454,VALID,221.399,VALID,19.867,VALID,142.0,VALID,0.832,
2017-04-01, 07:15:06,VALID,918.665,VALID,0.0,VALID,92.321,VALID,224.256,VALID,19.941,VALID,150.0,VALID,0.785,
2017-04-01, 07:16:06,VALID,918.663,VALID,0.0,VALID,92.121,VALID,226.746,VALID,20.031,VALID,153.0,VALID,0.711,
2017-04-01, 07:17:06,VALID,918.658,VALID,0.0,VALID,91.968,VALID,229.147,VALID,20.126,VALID,129.0,VALID,0.938,
2017-04-01, 07:18:06,VALID,918.635,VALID,0.0,VALID,92.034,VALID,231.572,VALID,20.229,VALID,119.0,VALID,0.541,
2017-04-01, 07:19:06,VALID,918.635,VALID,0.0,VALID,90.6,VALID,233.822,VALID,20.361,VALID,93.0,VALID,1.128,
2017-04-01, 07:20:06,VALID,918.638,VALID,0.0,VALID,89.454,VALID,236.099,VALID,20.373,VALID,95.0,VALID,1.131,
2017-04-01, 07:21:06,VALID,918.632,VALID,0.0,VALID,89.891,VALID,238.323,VALID,20.363,VALID,81.0,VALID,0.756,
2017-04-01, 07:22:06,VALID,918.651,VALID,0.0,VALID,91.226,VALID,240.847,VALID,20.494,VALID,91.0,VALID,0.535,
2017-04-01, 07:23:06,VALID,918.658,VALID,0.0,VALID,90.337,VALID,243.296,VALID,20.616,VALID,116.0,VALID,0.969,
2017-04-01, 07:24:06,VALID,918.659,VALID,0.0,VALID,90.258,VALID,246.172,VALID,20.704,VALID,129.0,VALID,0.685,
2017-04-01, 07:25:06,VALID,918.677,VALID,0.0,VALID,89.375,VALID,249.276,VALID,20.79,VALID,119.0,VALID,0.802,
2017-04-01, 07:26:06,VALID,918.688,VALID,0.0,VALID,88.45,VALID,252.024,VALID,20.819,VALID,100.0,VALID,0.844,
2017-04-01, 07:27:06,VALID,918.681,VALID,0.0,VALID,88.057,VALID,254.477,VALID,20.813,VALID,105.0,VALID,0.836,
2017-04-01, 07:28:06,VALID,918.683,VALID,0.0,VALID,88.498,VALID,257.04,VALID,20.821,VALID,95.0,VALID,0.787,
2017-04-01, 07:29:06,VALID,918.693,VALID,0.0,VALID,88.895,VALID,260.044,VALID,20.851,VALID,98.0,VALID,0.965,
2017-04-01, 07:30:06,VALID,918.686,VALID,0.0,VALID,87.813,VALID,262.809,VALID,20.842,VALID,90.0,VALID,0.938,
2017-04-01, 07:31:06,VALID,918.687,VALID,0.0,VALID,88.075,VALID,265.709,VALID,20.868,VALID,69.0,VALID,0.898,
2017-04-01, 07:32:06,VALID,918.696,VALID,0.0,VALID,88.288,VALID,268.227,VALID,20.95,VALID,81.0,VALID,0.556,
2017-04-01, 07:33:06,VALID,918.708,VALID,0.0,VALID,87.31,VALID,269.973,VALID,21.058,VALID,88.0,VALID,0.518,
2017-04-01, 07:34:06,VALID,918.708,VALID,0.0,VALID,86.592,VALID,272.526,VALID,21.173,VALID,112.0,VALID,0.809,
2017-04-01, 07:35:06,VALID,918.72,VALID,0.0,VALID,85.913,VALID,273.939,VALID,21.238,VALID,119.0,VALID,0.509,
2017-04-01, 07:36:06,VALID,918.717,VALID,0.0,VALID,86.3,VALID,275.903,VALID,21.318,VALID,102.0,VALID,0.663,
2017-04-01, 07:37:06,VALID,918.728,VALID,0.0,VALID,85.771,VALID,279.24,VALID,21.433,VALID,92.0,VALID,0.559,
2017-04-01, 07:38:06,VALID,918.734,VALID,0.0,VALID,84.588,VALID,281.543,VALID,21.452,VALID,92.0,VALID,0.742,
2017-04-01, 07:39:06,VALID,918.736,VALID,0.0,VALID,84.837,VALID,285.288,VALID,21.417,VALID,87.0,VALID,0.602,
2017-04-01, 07:40:06,VALID,918.739,VALID,0.0,VALID,84.343,VALID,289.276,VALID,21.453,VALID,79.0,VALID,0.593,
2017-04-01, 07:41:06,VALID,918.745,VALID,0.0,VALID,85.033,VALID,293.614,VALID,21.513,VALID,93.0,VALID,0.543,
2017-04-01, 07:42:06,VALID,918.753,VALID,0.0,VALID,84.802,VALID,298.135,VALID,21.555,VALID,105.0,VALID,0.637,
2017-04-01, 07:43:06,VALID,918.756,VALID,0.0,VALID,85.396,VALID,301.352,VALID,21.633,VALID,95.0,VALID,0.474,
2017-04-01, 07:44:06,VALID,918.773,VALID,0.0,VALID,83.515,VALID,304.409,VALID,21.66,VALID,128.0,VALID,0.223,
2017-04-01, 07:45:06,VALID,918.765,VALID,0.0,VALID,83.711,VALID,306.925,VALID,21.788,VALID,129.0,VALID,0.13,
2017-04-01, 07:46:06,VALID,918.759,VALID,0.0,VALID,83.653,VALID,309.671,VALID,21.979,VALID,83.0,VALID,0.392,
2017-04-01, 07:47:06,VALID,918.768,VALID,0.0,VALID,81.722,VALID,313.953,VALID,22.108,VALID,92.0,VALID,0.322,
2017-04-01, 07:48:06,VALID,918.772,VALID,0.0,VALID,80.839,VALID,318.958,VALID,22.165,VALID,97.0,VALID,0.347,
2017-04-01, 07:49:06,VALID,918.776,VALID,0.0,VALID,81.509,VALID,322.885,VALID,22.195,VALID,72.0,VALID,0.525,
2017-04-01, 07:50:06,VALID,918.783,VALID,0.0,VALID,81.3,VALID,326.803,VALID,22.247,VALID,69.0,VALID,0.207,
2017-04-01, 07:51:06,VALID,918.797,VALID,0.0,VALID,80.324,VALID,331.088,VALID,22.372,VALID,59.0,VALID,0.041,
2017-04-01, 07:52:06,VALID,918.811,VALID,0.0,VALID,79.321,VALID,335.954,VALID,22.497,VALID,36.0,VALID,0.079,
2017-04-01, 07:53:06,VALID,918.817,VALID,0.0,VALID,79.02,VALID,340.15,VALID,22.553,VALID,7.0,VALID,0.199,
2017-04-01, 07:54:06,VALID,918.832,VALID,0.0,VALID,79.117,VALID,343.025,VALID,22.639,VALID,346.0,VALID,0.023,
2017-04-01, 07:55:06,VALID,918.832,VALID,0.0,VALID,78.379,VALID,345.884,VALID,22.792,VALID,36.0,VALID,0.039,
2017-04-01, 07:56:06,VALID,918.849,VALID,0.0,VALID,77.905,VALID,349.051,VALID,23.012,VALID,13.0,VALID,0.121,
2017-04-01, 07:57:06,VALID,918.852,VALID,0.0,VALID,77.677,VALID,352.93,VALID,23.035,VALID,271.0,VALID,0.331,
2017-04-01, 07:58:06,VALID,918.873,VALID,0.0,VALID,78.548,VALID,355.478,VALID,22.791,VALID,261.0,VALID,0.37,
2017-04-01, 07:59:06,VALID,918.881,VALID,0.0,VALID,79.794,VALID,357.434,VALID,22.541,VALID,248.0,VALID,0.146,
2017-04-01, 08:00:06,VALID,918.894,VALID,0.0,VALID,79.898,VALID,360.958,VALID,22.539,VALID,248.0,VALID,0.0,
2017-04-01, 08:01:06,VALID,918.91,VALID,0.0,VALID,79.644,VALID,363.639,VALID,22.659,VALID,297.0,VALID,0.222,
2017-04-01, 08:02:06,VALID,918.912,VALID,0.0,VALID,79.51,VALID,365.793,VALID,22.762,VALID,322.0,VALID,0.179,
2017-04-01, 08:03:06,VALID,918.924,VALID,0.0,VALID,79.214,VALID,369.351,VALID,22.819,VALID,263.0,VALID,0.312,
2017-04-01, 08:04:06,VALID,918.919,VALID,0.0,VALID,78.68,VALID,371.498,VALID,22.645,VALID,264.0,VALID,0.425,
2017-04-01, 08:05:06,VALID,918.926,VALID,0.0,VALID,79.933,VALID,374.761,VALID,22.558,VALID,322.0,VALID,0.509,
2017-04-01, 08:06:06,VALID,918.916,VALID,0.0,VALID,79.355,VALID,377.567,VALID,22.643,VALID,322.0,VALID,0.473,
2017-04-01, 08:07:06,VALID,918.927,VALID,0.0,VALID,79.214,VALID,379.54,VALID,22.482,VALID,308.0,VALID,0.633,
2017-04-01, 08:08:06,VALID,918.937,VALID,0.0,VALID,80.219,VALID,383.032,VALID,22.25,VALID,313.0,VALID,0.614,
2017-04-01, 08:09:06,VALID,918.94,VALID,0.0,VALID,80.401,VALID,388.282,VALID,22.065,VALID,306.0,VALID,0.605,
2017-04-01, 08:10:06,VALID,918.96,VALID,0.0,VALID,80.323,VALID,393.193,VALID,21.962,VALID,286.0,VALID,0.517,
2017-04-01, 08:11:06,VALID,918.969,VALID,0.0,VALID,80.885,VALID,397.254,VALID,21.902,VALID,304.0,VALID,0.373,
2017-04-01, 08:12:06,VALID,918.978,VALID,0.0,VALID,80.791,VALID,401.299,VALID,21.944,VALID,322.0,VALID,0.459,
2017-04-01, 08:13:06,VALID,918.974,VALID,0.0,VALID,80.893,VALID,404.158,VALID,22.032,VALID,343.0,VALID,0.5,
2017-04-01, 08:14:06,VALID,918.979,VALID,0.0,VALID,80.6,VALID,408.454,VALID,22.356,VALID,317.0,VALID,0.222,
2017-04-01, 08:15:06,VALID,918.974,VALID,0.0,VALID,79.475,VALID,413.22,VALID,22.63,VALID,296.0,VALID,0.454,
2017-04-01, 08:16:06,VALID,918.978,VALID,0.0,VALID,78.519,VALID,417.54,VALID,22.679,VALID,317.0,VALID,0.443,
2017-04-01, 08:17:06,VALID,918.98,VALID,0.0,VALID,79.681,VALID,420.972,VALID,22.575,VALID,313.0,VALID,0.448,
2017-04-01, 08:18:06,VALID,918.991,VALID,0.0,VALID,80.45,VALID,424.408,VALID,22.516,VALID,319.0,VALID,0.364,
2017-04-01, 08:19:06,VALID,919.022,VALID,0.0,VALID,80.047,VALID,429.048,VALID,22.654,VALID,257.0,VALID,0.061,
2017-04-01, 08:20:06,VALID,919.026,VALID,0.0,VALID,79.586,VALID,432.798,VALID,22.922,VALID,305.0,VALID,0.155,
2017-04-01, 08:21:06,VALID,919.032,VALID,0.0,VALID,79.177,VALID,438.251,VALID,23.266,VALID,301.0,VALID,0.298,
2017-04-01, 08:22:06,VALID,919.04,VALID,0.0,VALID,77.725,VALID,443.345,VALID,23.354,VALID,267.0,VALID,0.285,
2017-04-01, 08:23:06,VALID,919.029,VALID,0.0,VALID,77.893,VALID,446.183,VALID,23.273,VALID,268.0,VALID,0.181,
2017-04-01, 08:24:06,VALID,919.037,VALID,0.0,VALID,78.163,VALID,450.444,VALID,23.355,VALID,268.0,VALID,0.255,
2017-04-01, 08:25:06,VALID,919.063,VALID,0.0,VALID,77.434,VALID,454.794,VALID,23.298,VALID,253.0,VALID,0.403,
2017-04-01, 08:26:06,VALID,919.059,VALID,0.0,VALID,75.877,VALID,459.403,VALID,23.196,VALID,264.0,VALID,0.218,
2017-04-01, 08:27:06,VALID,919.057,VALID,0.0,VALID,77.799,VALID,464.252,VALID,23.202,VALID,261.0,VALID,0.436,
2017-04-01, 08:28:06,VALID,919.061,VALID,0.0,VALID,77.242,VALID,469.407,VALID,23.126,VALID,251.0,VALID,0.587,
2017-04-01, 08:29:06,VALID,919.039,VALID,0.0,VALID,77.641,VALID,475.494,VALID,23.006,VALID,270.0,VALID,0.406,
2017-04-01, 08:30:06,VALID,919.036,VALID,0.0,VALID,77.918,VALID,480.515,VALID,22.99,VALID,266.0,VALID,0.423,
2017-04-01, 08:31:06,VALID,919.03,VALID,0.0,VALID,77.96,VALID,485.78,VALID,22.945,VALID,267.0,VALID,0.402,
2017-04-01, 08:32:06,VALID,919.034,VALID,0.0,VALID,78.482,VALID,492.948,VALID,22.919,VALID,272.0,VALID,0.499,
2017-04-01, 08:33:06,VALID,919.028,VALID,0.0,VALID,78.267,VALID,499.283,VALID,22.986,VALID,307.0,VALID,0.56,
2017-04-01, 08:34:06,VALID,919.031,VALID,0.0,VALID,77.396,VALID,503.478,VALID,23.002,VALID,296.0,VALID,0.684,
2017-04-01, 08:35:06,VALID,919.051,VALID,0.0,VALID,78.379,VALID,508.988,VALID,22.966,VALID,299.0,VALID,0.588,
2017-04-01, 08:36:06,VALID,919.072,VALID,0.0,VALID,78.571,VALID,515.164,VALID,23.015,VALID,309.0,VALID,0.643,
2017-04-01, 08:37:06,VALID,919.095,VALID,0.0,VALID,77.719,VALID,520.652,VALID,23.159,VALID,312.0,VALID,0.402,
2017-04-01, 08:38:06,VALID,919.115,VALID,0.0,VALID,76.871,VALID,525.683,VALID,23.268,VALID,293.0,VALID,0.245,
2017-04-01, 08:39:06,VALID,919.126,VALID,0.0,VALID,76.854,VALID,532.698,VALID,23.308,VALID,319.0,VALID,0.542,
2017-04-01, 08:40:06,VALID,919.147,VALID,0.0,VALID,75.908,VALID,539.551,VALID,23.352,VALID,293.0,VALID,0.646,
2017-04-01, 08:41:06,VALID,919.166,VALID,0.0,VALID,75.082,VALID,544.36,VALID,23.297,VALID,299.0,VALID,0.967,
2017-04-01, 08:42:06,VALID,919.192,VALID,0.0,VALID,75.576,VALID,548.045,VALID,23.08,VALID,296.0,VALID,1.091,
2017-04-01, 08:43:06,VALID,919.194,VALID,0.0,VALID,76.935,VALID,551.61,VALID,22.993,VALID,322.0,VALID,0.364,
2017-04-01, 08:44:06,VALID,919.207,VALID,0.0,VALID,76.288,VALID,555.545,VALID,23.217,VALID,273.0,VALID,0.488,
2017-04-01, 08:45:06,VALID,919.218,VALID,0.0,VALID,75.415,VALID,558.015,VALID,23.259,VALID,265.0,VALID,0.675,
2017-04-01, 08:46:06,VALID,919.227,VALID,0.0,VALID,76.352,VALID,560.675,VALID,23.244,VALID,293.0,VALID,0.423,
2017-04-01, 08:47:06,VALID,919.235,VALID,0.0,VALID,76.227,VALID,563.596,VALID,23.433,VALID,231.0,VALID,0.155,
2017-04-01, 08:48:06,VALID,919.23,VALID,0.0,VALID,75.241,VALID,566.074,VALID,23.64,VALID,258.0,VALID,0.281,
2017-04-01, 08:49:06,VALID,919.233,VALID,0.0,VALID,74.929,VALID,567.666,VALID,23.816,VALID,269.0,VALID,0.39,
2017-04-01, 08:50:06,VALID,919.246,VALID,0.0,VALID,74.642,VALID,570.838,VALID,23.894,VALID,303.0,VALID,0.67,
2017-04-01, 08:51:06,VALID,919.249,VALID,0.0,VALID,72.505,VALID,571.771,VALID,23.911,VALID,347.0,VALID,0.424,
2017-04-01, 08:52:06,VALID,919.264,VALID,0.0,VALID,72.137,VALID,571.607,VALID,24.117,VALID,272.0,VALID,0.054,
2017-04-01, 08:53:06,VALID,919.28,VALID,0.0,VALID,72.138,VALID,575.359,VALID,24.32,VALID,4.0,VALID,1.261,
2017-04-01, 08:54:06,VALID,919.292,VALID,0.0,VALID,72.637,VALID,580.045,VALID,24.508,VALID,17.0,VALID,1.123,
2017-04-01, 08:55:06,VALID,919.305,VALID,0.0,VALID,71.16,VALID,584.108,VALID,24.848,VALID,1.0,VALID,0.77,
2017-04-01, 08:56:06,VALID,919.327,VALID,0.0,VALID,70.398,VALID,586.641,VALID,25.02,VALID,348.0,VALID,0.589,
2017-04-01, 08:57:06,VALID,919.333,VALID,0.0,VALID,69.524,VALID,592.696,VALID,25.058,VALID,308.0,VALID,0.251,
2017-04-01, 08:58:06,VALID,919.349,VALID,0.0,VALID,70.01,VALID,596.521,VALID,25.063,VALID,5.0,VALID,0.47,
2017-04-01, 08:59:06,VALID,919.362,VALID,0.0,VALID,69.401,VALID,599.816,VALID,25.12,VALID,355.0,VALID,0.251,
2017-04-01, 09:00:06,VALID,919.372,VALID,0.0,VALID,70.135,VALID,602.947,VALID,25.174,VALID,12.0,VALID,0.67,
2017-04-01, 09:01:06,VALID,919.385,VALID,0.0,VALID,68.953,VALID,606.572,VALID,25.295,VALID,15.0,VALID,0.547,
2017-04-01, 09:02:06,VALID,919.392,VALID,0.0,VALID,68.212,VALID,610.103,VALID,25.458,VALID,335.0,VALID,0.688,
2017-04-01, 09:03:06,VALID,919.399,VALID,0.0,VALID,68.844,VALID,613.878,VALID,25.141,VALID,355.0,VALID,1.111,
2017-04-01, 09:04:06,VALID,919.377,VALID,0.0,VALID,70.534,VALID,618.27,VALID,24.804,VALID,42.0,VALID,1.805,
2017-04-01, 09:05:06,VALID,919.376,VALID,0.0,VALID,71.362,VALID,621.413,VALID,24.588,VALID,29.0,VALID,2.164,
2017-04-01, 09:06:06,VALID,919.39,VALID,0.0,VALID,71.971,VALID,621.995,VALID,24.558,VALID,333.0,VALID,0.747,
2017-04-01, 09:07:06,VALID,919.41,VALID,0.0,VALID,72.155,VALID,616.652,VALID,24.647,VALID,301.0,VALID,0.766,
2017-04-01, 09:08:06,VALID,919.405,VALID,0.0,VALID,71.44,VALID,617.297,VALID,24.598,VALID,5.0,VALID,1.486,
2017-04-01, 09:09:06,VALID,919.442,VALID,0.0,VALID,69.92,VALID,612.107,VALID,24.49,VALID,345.0,VALID,1.085,
2017-04-01, 09:10:06,VALID,919.459,VALID,0.0,VALID,69.637,VALID,613.24,VALID,24.375,VALID,291.0,VALID,0.688,
2017-04-01, 09:11:06,VALID,919.462,VALID,0.0,VALID,70.501,VALID,633.635,VALID,24.316,VALID,16.0,VALID,1.415,
2017-04-01, 09:12:06,VALID,919.476,VALID,0.0,VALID,70.413,VALID,643.595,VALID,24.326,VALID,17.0,VALID,1.346,
2017-04-01, 09:13:06,VALID,919.483,VALID,0.0,VALID,70.327,VALID,645.07,VALID,24.218,VALID,26.0,VALID,1.346,
2017-04-01, 09:14:06,VALID,919.482,VALID,0.0,VALID,71.215,VALID,647.627,VALID,24.23,VALID,23.0,VALID,1.157,
2017-04-01, 09:15:06,VALID,919.488,VALID,0.0,VALID,72.035,VALID,648.616,VALID,24.51,VALID,52.0,VALID,0.895,
2017-04-01, 09:16:06,VALID,919.487,VALID,0.0,VALID,71.11,VALID,653.072,VALID,24.799,VALID,7.0,VALID,1.316,
2017-04-01, 09:17:06,VALID,919.487,VALID,0.0,VALID,70.6,VALID,657.806,VALID,24.829,VALID,15.0,VALID,1.707,
2017-04-01, 09:18:06,VALID,919.514,VALID,0.0,VALID,70.912,VALID,662.613,VALID,24.735,VALID,27.0,VALID,1.125,
2017-04-01, 09:19:06,VALID,919.525,VALID,0.0,VALID,70.357,VALID,665.661,VALID,24.688,VALID,296.0,VALID,0.69,
2017-04-01, 09:20:06,VALID,919.5,VALID,0.0,VALID,71.549,VALID,667.282,VALID,24.646,VALID,346.0,VALID,0.427,
2017-04-01, 09:21:06,VALID,919.503,VALID,0.0,VALID,71.559,VALID,672.83,VALID,24.834,VALID,290.0,VALID,0.0,
2017-04-01, 09:22:06,VALID,919.495,VALID,0.0,VALID,70.015,VALID,675.156,VALID,24.988,VALID,248.0,VALID,0.729,
2017-04-01, 09:23:06,VALID,919.497,VALID,0.0,VALID,69.433,VALID,675.826,VALID,24.897,VALID,281.0,VALID,0.706,
2017-04-01, 09:24:06,VALID,919.481,VALID,0.0,VALID,68.422,VALID,681.648,VALID,24.8,VALID,269.0,VALID,0.764,
2017-04-01, 09:25:06,VALID,919.476,VALID,0.0,VALID,69.348,VALID,683.819,VALID,24.749,VALID,306.0,VALID,0.575,
2017-04-01, 09:26:06,VALID,919.476,VALID,0.0,VALID,67.468,VALID,690.902,VALID,24.791,VALID,299.0,VALID,0.877,
2017-04-01, 09:27:06,VALID,919.482,VALID,0.0,VALID,66.874,VALID,697.822,VALID,24.735,VALID,263.0,VALID,0.876,
2017-04-01, 09:28:06,VALID,919.485,VALID,0.0,VALID,69.305,VALID,701.938,VALID,24.62,VALID,280.0,VALID,0.564,
2017-04-01, 09:29:06,VALID,919.496,VALID,0.0,VALID,67.536,VALID,707.615,VALID,24.669,VALID,265.0,VALID,0.972,
2017-04-01, 09:30:06,VALID,919.502,VALID,0.0,VALID,68.661,VALID,709.711,VALID,24.552,VALID,331.0,VALID,0.391,
2017-04-01, 09:31:06,VALID,919.516,VALID,0.0,VALID,69.174,VALID,712.081,VALID,24.682,VALID,305.0,VALID,0.438,
2017-04-01, 09:32:06,VALID,919.523,VALID,0.0,VALID,69.266,VALID,713.999,VALID,24.76,VALID,261.0,VALID,0.378,
2017-04-01, 09:33:06,VALID,919.56,VALID,0.0,VALID,70.141,VALID,724.245,VALID,25.039,VALID,335.0,VALID,0.106,
2017-04-01, 09:34:06,VALID,919.57,VALID,0.0,VALID,69.07,VALID,731.293,VALID,25.468,VALID,3.0,VALID,0.58,
2017-04-01, 09:35:06,VALID,919.578,VALID,0.0,VALID,64.899,VALID,747.014,VALID,25.699,VALID,302.0,VALID,0.587,
2017-04-01, 09:36:06,VALID,919.594,VALID,0.0,VALID,64.817,VALID,724.141,VALID,25.52,VALID,296.0,VALID,0.841,
2017-04-01, 09:37:06,VALID,919.596,VALID,0.0,VALID,65.346,VALID,741.833,VALID,25.314,VALID,328.0,VALID,0.092,
2017-04-01, 09:38:06,VALID,919.598,VALID,0.0,VALID,66.353,VALID,756.508,VALID,25.501,VALID,254.0,VALID,0.331,
2017-04-01, 09:39:06,VALID,919.595,VALID,0.0,VALID,66.256,VALID,761.852,VALID,25.749,VALID,308.0,VALID,0.62,
2017-04-01, 09:40:06,VALID,919.598,VALID,0.0,VALID,64.528,VALID,772.367,VALID,25.728,VALID,240.0,VALID,0.608,
2017-04-01, 09:41:06,VALID,919.604,VALID,0.0,VALID,65.222,VALID,778.095,VALID,25.721,VALID,165.0,VALID,0.186,
2017-04-01, 09:42:06,VALID,919.614,VALID,0.0,VALID,66.566,VALID,764.366,VALID,26.079,VALID,341.0,VALID,0.245,
2017-04-01, 09:43:06,VALID,919.624,VALID,0.0,VALID,64.559,VALID,719.015,VALID,26.27,VALID,232.0,VALID,0.968,
2017-04-01, 09:44:06,VALID,919.617,VALID,0.0,VALID,65.375,VALID,672.852,VALID,26.089,VALID,329.0,VALID,0.647,
2017-04-01, 09:45:06,VALID,919.635,VALID,0.0,VALID,65.751,VALID,547.751,VALID,26.085,VALID,250.0,VALID,0.248,
2017-04-01, 09:46:06,VALID,919.635,VALID,0.0,VALID,65.234,VALID,679.534,VALID,26.23,VALID,248.0,VALID,0.459,
2017-04-01, 09:47:06,VALID,919.645,VALID,0.0,VALID,64.513,VALID,711.311,VALID,26.054,VALID,274.0,VALID,0.259,
2017-04-01, 09:48:06,VALID,919.644,VALID,0.0,VALID,64.984,VALID,679.698,VALID,25.988,VALID,280.0,VALID,0.241,
2017-04-01, 09:49:06,VALID,919.657,VALID,0.0,VALID,65.507,VALID,671.326,VALID,26.18,VALID,23.0,VALID,0.157,
2017-04-01, 09:50:06,VALID,919.669,VALID,0.0,VALID,65.159,VALID,750.185,VALID,26.529,VALID,360.0,VALID,0.346,
2017-04-01, 09:51:06,VALID,919.679,VALID,0.0,VALID,63.561,VALID,732.355,VALID,26.752,VALID,310.0,VALID,0.333,
2017-04-01, 09:52:06,VALID,919.675,VALID,0.0,VALID,62.901,VALID,748.89,VALID,26.776,VALID,236.0,VALID,1.2,
2017-04-01, 09:53:06,VALID,919.703,VALID,0.0,VALID,65.672,VALID,753.097,VALID,26.453,VALID,321.0,VALID,0.636,
2017-04-01, 09:54:06,VALID,919.721,VALID,0.0,VALID,64.332,VALID,757.576,VALID,26.227,VALID,298.0,VALID,1.045,
2017-04-01, 09:55:06,VALID,919.747,VALID,0.0,VALID,64.783,VALID,759.187,VALID,25.786,VALID,314.0,VALID,0.94,
2017-04-01, 09:56:06,VALID,919.731,VALID,0.0,VALID,65.456,VALID,758.418,VALID,25.587,VALID,284.0,VALID,0.948,
2017-04-01, 09:57:06,VALID,919.719,VALID,0.0,VALID,65.97,VALID,748.21,VALID,25.232,VALID,252.0,VALID,0.72,
2017-04-01, 09:58:06,VALID,919.706,VALID,0.0,VALID,67.092,VALID,736.096,VALID,25.15,VALID,262.0,VALID,0.761,
2017-04-01, 09:59:06,VALID,919.689,VALID,0.0,VALID,68.557,VALID,743.458,VALID,25.274,VALID,313.0,VALID,0.731,
2017-04-01, 10:00:06,VALID,919.702,VALID,0.0,VALID,67.447,VALID,753.606,VALID,25.618,VALID,330.0,VALID,1.201,
2017-04-01, 10:01:06,VALID,919.72,VALID,0.0,VALID,65.679,VALID,760.656,VALID,25.367,VALID,297.0,VALID,1.021,
2017-04-01, 10:02:06,VALID,919.709,VALID,0.0,VALID,66.896,VALID,768.002,VALID,25.201,VALID,317.0,VALID,0.522,
2017-04-01, 10:03:06,VALID,919.711,VALID,0.0,VALID,65.854,VALID,767.001,VALID,25.285,VALID,319.0,VALID,0.006,
2017-04-01, 10:04:06,VALID,919.718,VALID,0.0,VALID,65.568,VALID,768.515,VALID,25.533,VALID,326.0,VALID,0.086,
2017-04-01, 10:05:06,VALID,919.716,VALID,0.0,VALID,65.776,VALID,769.709,VALID,25.814,VALID,182.0,VALID,0.098,
2017-04-01, 10:06:06,VALID,919.718,VALID,0.0,VALID,65.031,VALID,777.982,VALID,26.081,VALID,4.0,VALID,0.742,
2017-04-01, 10:07:06,VALID,919.729,VALID,0.0,VALID,65.241,VALID,801.058,VALID,26.245,VALID,290.0,VALID,0.65,
2017-04-01, 10:08:06,VALID,919.71,VALID,0.0,VALID,64.571,VALID,816.612,VALID,26.394,VALID,287.0,VALID,0.224,
2017-04-01, 10:09:06,VALID,919.699,VALID,0.0,VALID,64.019,VALID,817.065,VALID,26.497,VALID,256.0,VALID,0.438,
2017-04-01, 10:10:06,VALID,919.681,VALID,0.0,VALID,65.692,VALID,814.407,VALID,26.49,VALID,25.0,VALID,0.77,
2017-04-01, 10:11:06,VALID,919.648,VALID,0.0,VALID,63.728,VALID,822.184,VALID,26.474,VALID,17.0,VALID,1.579,
2017-04-01, 10:12:06,VALID,919.64,VALID,0.0,VALID,63.923,VALID,810.859,VALID,26.378,VALID,45.0,VALID,0.321,
2017-04-01, 10:13:06,VALID,919.631,VALID,0.0,VALID,65.438,VALID,798.998,VALID,26.57,VALID,3.0,VALID,0.693,
2017-04-01, 10:14:06,VALID,919.614,VALID,0.0,VALID,65.028,VALID,782.439,VALID,26.805,VALID,12.0,VALID,1.365,
2017-04-01, 10:15:06,VALID,919.603,VALID,0.0,VALID,64.49,VALID,771.892,VALID,26.915,VALID,5.0,VALID,1.066,
2017-04-01, 10:16:06,VALID,919.594,VALID,0.0,VALID,64.029,VALID,764.808,VALID,27.0,VALID,293.0,VALID,0.827,
2017-04-01, 10:17:06,VALID,919.582,VALID,0.0,VALID,61.915,VALID,764.983,VALID,26.874,VALID,172.0,VALID,0.08,
2017-04-01, 10:18:06,VALID,919.55,VALID,0.0,VALID,63.211,VALID,769.082,VALID,26.928,VALID,243.0,VALID,0.473,
2017-04-01, 10:19:06,VALID,919.553,VALID,0.0,VALID,63.537,VALID,778.1,VALID,26.928,VALID,309.0,VALID,0.484,
2017-04-01, 10:20:06,VALID,919.537,VALID,0.0,VALID,63.203,VALID,785.872,VALID,26.78,VALID,286.0,VALID,0.965,
2017-04-01, 10:21:06,VALID,919.519,VALID,0.0,VALID,64.841,VALID,791.457,VALID,26.614,VALID,7.0,VALID,1.695,
2017-04-01, 10:22:06,VALID,919.52,VALID,0.0,VALID,64.053,VALID,794.247,VALID,26.613,VALID,2.0,VALID,0.957,
2017-04-01, 10:23:06,VALID,919.525,VALID,0.0,VALID,63.656,VALID,793.25,VALID,26.715,VALID,223.0,VALID,1.007,
2017-04-01, 10:24:06,VALID,919.519,VALID,0.0,VALID,64.439,VALID,795.926,VALID,26.608,VALID,231.0,VALID,0.443,
2017-04-01, 10:25:06,VALID,919.514,VALID,0.0,VALID,63.127,VALID,793.128,VALID,26.665,VALID,179.0,VALID,0.705,
2017-04-01, 10:26:06,VALID,919.523,VALID,0.0,VALID,62.859,VALID,797.029,VALID,26.805,VALID,347.0,VALID,0.677,
2017-04-01, 10:27:06,VALID,919.52,VALID,0.0,VALID,61.389,VALID,813.137,VALID,26.943,VALID,24.0,VALID,0.439,
2017-04-01, 10:28:06,VALID,919.536,VALID,0.0,VALID,61.85,VALID,813.042,VALID,27.031,VALID,308.0,VALID,0.546,
2017-04-01, 10:29:06,VALID,919.532,VALID,0.0,VALID,62.184,VALID,824.943,VALID,26.986,VALID,331.0,VALID,0.389,
2017-04-01, 10:30:06,VALID,919.507,VALID,0.0,VALID,62.334,VALID,831.994,VALID,26.983,VALID,340.0,VALID,0.216,
2017-04-01, 10:31:06,VALID,919.486,VALID,0.0,VALID,62.278,VALID,841.59,VALID,26.961,VALID,19.0,VALID,0.603,
2017-04-01, 10:32:06,VALID,919.472,VALID,0.0,VALID,63.569,VALID,848.902,VALID,26.853,VALID,323.0,VALID,0.865,
2017-04-01, 10:33:06,VALID,919.487,VALID,0.0,VALID,65.243,VALID,845.424,VALID,26.988,VALID,294.0,VALID,0.408,
2017-04-01, 10:34:06,VALID,919.467,VALID,0.0,VALID,63.882,VALID,842.333,VALID,27.129,VALID,264.0,VALID,0.334,
2017-04-01, 10:35:06,VALID,919.472,VALID,0.0,VALID,64.107,VALID,826.276,VALID,27.252,VALID,346.0,VALID,0.738,
2017-04-01, 10:36:06,VALID,919.489,VALID,0.0,VALID,62.941,VALID,829.61,VALID,27.284,VALID,5.0,VALID,1.13,